| time (UTC) | temp F | wind direction | speed knots | gust knots | rain 1hr in | rain 24hr in | rain mn in | humidity % | barometer mb |
| 20260902135330 | 81 | 333 | 0.0 | 0.0 | 0.00 | 0.20 | 0.20 | 93 | 1013.4 |
| 20260902134829 | 80 | 287 | 0.0 | 0.9 | 0.00 | 0.20 | 0.20 | 95 | 1013.2 |
| 20260902134325 | 78 | 274 | 0.0 | 0.0 | 0.00 | 0.20 | 0.20 | 99 | 1013.5 |
| 20260902133820 | 78 | 219 | 0.0 | 0.0 | 0.00 | 0.20 | 0.20 | 99 | 1013.5 |
| 20260902133319 | 77 | 291 | 0.0 | 0.0 | 0.00 | 0.20 | 0.20 | 99 | 1013.6 |
| 20260902132815 | 77 | 237 | 0.9 | 1.7 | 0.00 | 0.20 | 0.20 | 99 | 1013.5 |
| 20260902132310 | 78 | 303 | 0.0 | 0.0 | 0.00 | 0.20 | 0.20 | 99 | 1013.5 |
| 20260902131806 | 77 | 23 | 0.0 | 0.0 | 0.00 | 0.20 | 0.20 | 99 | 1013.6 |
| 20260902131302 | 77 | 299 | 0.0 | 0.0 | 0.00 | 0.20 | 0.20 | 99 | 1013.8 |
| 20260902130801 | 76 | 245 | 0.0 | 0.0 | 0.00 | 0.20 | 0.20 | 99 | 1013.6 |
| 20260902130257 | 76 | 262 | 0.0 | 0.0 | 0.00 | 0.20 | 0.20 | 99 | 1013.9 |
| 20260902125752 | 76 | 272 | 0.0 | 0.0 | 0.00 | 0.20 | 0.20 | 99 | 1013.8 |
| 20260902125248 | 76 | 294 | 0.9 | 1.7 | 0.00 | 0.20 | 0.20 | 99 | 1014.0 |
| 20260902124744 | 76 | 288 | 0.0 | 0.0 | 0.00 | 0.20 | 0.20 | 99 | 1013.7 |
| 20260902124240 | 76 | 294 | 0.0 | 0.0 | 0.00 | 0.20 | 0.20 | 99 | 1013.8 |
| 20260902123735 | 75 | 292 | 0.0 | 0.0 | 0.00 | 0.20 | 0.20 | 99 | 1013.7 |
| 20260902123231 | 75 | 297 | 0.0 | 0.0 | 0.00 | 0.20 | 0.20 | 99 | 1013.6 |
| 20260902122729 | 75 | 304 | 0.0 | 0.0 | 0.00 | 0.20 | 0.20 | 99 | 1013.6 |
| 20260902122226 | 75 | 290 | 0.0 | 0.0 | 0.00 | 0.20 | 0.20 | 99 | 1013.7 |
| 20260902121725 | 74 | 305 | 0.0 | 0.0 | 0.00 | 0.20 | 0.20 | 99 | 1013.5 |
| 20260902121220 | 74 | 291 | 0.0 | 0.0 | 0.00 | 0.20 | 0.20 | 99 | 1013.6 |
| 20260902120716 | 74 | 312 | 0.0 | 0.0 | 0.00 | 0.20 | 0.20 | 99 | 1013.7 |
| 20260902120213 | 73 | 315 | 0.0 | 0.0 | 0.00 | 0.20 | 0.20 | 99 | 1013.8 |
| 20260902115712 | 73 | 324 | 0.0 | 0.0 | 0.00 | 0.20 | 0.20 | 99 | 1013.6 |
| 20260902115209 | 73 | 300 | 0.0 | 0.0 | 0.00 | 0.20 | 0.20 | 99 | 1013.2 |
| 20260902114704 | 73 | 291 | 0.0 | 0.0 | 0.00 | 0.20 | 0.20 | 99 | 1013.5 |
| 20260902114159 | 72 | 298 | 0.0 | 0.0 | 0.00 | 0.20 | 0.20 | 99 | 1013.6 |
| 20260902113655 | 72 | 268 | 0.0 | 0.0 | 0.00 | 0.20 | 0.20 | 99 | 1013.2 |
| 20260902113149 | 72 | 293 | 0.0 | 0.0 | 0.00 | 0.20 | 0.20 | 99 | 1013.4 |
| 20260902112644 | 72 | 289 | 0.0 | 0.0 | 0.00 | 0.20 | 0.20 | 99 | 1013.4 |
| 20260902112141 | 72 | 312 | 0.0 | 0.0 | 0.00 | 0.20 | 0.20 | 99 | 1013.3 |
| 20260902111636 | 72 | 301 | 0.0 | 0.0 | 0.00 | 0.20 | 0.20 | 99 | 1013.6 |
| 20260902111132 | 72 | 295 | 0.0 | 0.0 | 0.00 | 0.20 | 0.20 | 99 | 1013.6 |
| 20260902110628 | 72 | 295 | 0.0 | 0.0 | 0.00 | 0.20 | 0.20 | 99 | 1013.5 |
| 20260902110124 | 72 | 278 | 0.0 | 0.0 | 0.00 | 0.20 | 0.20 | 99 | 1013.5 |
| 20260902105623 | 72 | 276 | 0.0 | 0.0 | 0.00 | 0.20 | 0.20 | 99 | 1013.6 |
| 20260902105118 | 72 | 295 | 0.0 | 0.0 | 0.00 | 0.20 | 0.20 | 99 | 1013.5 |
| 20260902104614 | 72 | 275 | 0.0 | 0.0 | 0.00 | 0.20 | 0.20 | 99 | 1013.8 |
| 20260902104109 | 73 | 237 | 0.0 | 0.0 | 0.07 | 0.20 | 0.20 | 99 | 1013.8 |
| 20260902103608 | 72 | 236 | 0.9 | 1.7 | 0.07 | 0.20 | 0.20 | 99 | 1013.9 |
| 20260902103104 | 72 | 242 | 1.7 | 1.7 | 0.00 | 0.19 | 0.19 | 99 | 1013.5 |
| 20260902102555 | 73 | 313 | 0.0 | 0.0 | 0.00 | 0.19 | 0.19 | 99 | 1013.4 |
| 20260902102051 | 73 | 341 | 0.0 | 0.0 | 0.40 | 0.19 | 0.19 | 99 | 1013.3 |
| 20260902101547 | 73 | 292 | 0.0 | 0.0 | 0.94 | 0.19 | 0.19 | 99 | 1013.6 |
| 20260902101046 | 75 | 306 | 2.6 | 4.3 | 0.71 | 0.13 | 0.13 | 99 | 1014.5 |
| 20260902100545 | 76 | 276 | 2.6 | 2.6 | 0.19 | 0.03 | 0.03 | 99 | 1014.2 |
| 20260902100040 | 76 | 279 | 2.6 | 4.3 | 0.07 | 0.01 | 0.01 | 99 | 1014.5 |
| 20260902095540 | 76 | 290 | 0.9 | 1.7 | 0.00 | 0.00 | 0.00 | 99 | 1014.0 |
| 20260902095039 | 75 | 280 | 0.0 | 0.0 | 0.00 | 0.00 | 0.00 | 99 | 1013.7 |
| 20260902094535 | 75 | 248 | 0.0 | 0.0 | 0.00 | 0.00 | 0.00 | 99 | 1013.4 |
| 20260902094030 | 75 | 269 | 0.0 | 0.0 | 0.00 | 0.00 | 0.00 | 99 | 1013.7 |
| 20260902093525 | 75 | 270 | 0.0 | 0.0 | 0.00 | 0.00 | 0.00 | 99 | 1013.7 |
| 20260902093025 | 75 | 281 | 0.0 | 0.0 | 0.00 | 0.00 | 0.00 | 99 | 1013.4 |
| 20260902092520 | 75 | 264 | 0.0 | 0.0 | 0.00 | 0.00 | 0.00 | 99 | 1013.6 |
| 20260902092015 | 75 | 347 | 0.0 | 0.0 | 0.00 | 0.00 | 0.00 | 99 | 1013.4 |
| 20260902091510 | 75 | 267 | 0.0 | 0.0 | 0.00 | 0.00 | 0.00 | 99 | 1013.5 |
| 20260902091006 | 75 | 284 | 0.0 | 0.0 | 0.00 | 0.00 | 0.00 | 99 | 1013.7 |
| 20260902090501 | 75 | 288 | 0.0 | 0.0 | 0.00 | 0.00 | 0.00 | 99 | 1013.5 |
| 20260902090000 | 75 | 291 | 0.0 | 0.0 | 0.00 | 0.00 | 0.00 | 99 | 1013.2 |
| 20260902085455 | 75 | 300 | 0.0 | 0.0 | 0.00 | 0.00 | 0.00 | 99 | 1013.2 |
| 20260902084950 | 75 | 300 | 0.0 | 0.0 | 0.00 | 0.00 | 0.00 | 99 | 1012.9 |
| 20260902084447 | 75 | 287 | 0.0 | 0.0 | 0.00 | 0.00 | 0.00 | 99 | 1013.1 |
| 20260902083943 | 75 | 287 | 0.0 | 0.0 | 0.00 | 0.00 | 0.00 | 99 | 1013.1 |
| 20260902083442 | 76 | 281 | 0.0 | 0.0 | 0.00 | 0.00 | 0.00 | 99 | 1013.3 |
| 20260902082937 | 76 | 261 | 0.0 | 0.0 | 0.00 | 0.00 | 0.00 | 99 | 1013.3 |
| 20260902082433 | 76 | 308 | 0.0 | 0.0 | 0.00 | 0.00 | 0.00 | 99 | 1013.2 |
| 20260902081929 | 76 | 280 | 0.0 | 0.0 | 0.00 | 0.00 | 0.00 | 99 | 1013.1 |
| 20260902081425 | 76 | 279 | 0.0 | 0.0 | 0.00 | 0.00 | 0.00 | 99 | 1013.2 |
| 20260902080920 | 76 | 303 | 0.0 | 0.0 | 0.00 | 0.00 | 0.00 | 99 | 1013.3 |
| 20260902080416 | 76 | 287 | 0.0 | 0.0 | 0.00 | 0.00 | 0.00 | 99 | 1013.4 |
| 20260902075915 | 76 | 302 | 0.0 | 0.0 | 0.00 | 0.00 | 0.00 | 99 | 1013.3 |
| 20260902075412 | 76 | 292 | 0.0 | 0.0 | 0.00 | 0.00 | 0.00 | 98 | 1013.1 |
| 20260902074907 | 76 | 287 | 0.0 | 0.0 | 0.00 | 0.00 | 0.00 | 98 | 1013.3 |
| 20260902074403 | 76 | 263 | 0.0 | 0.0 | 0.00 | 0.00 | 0.00 | 98 | 1013.1 |
| 20260902073857 | 75 | 286 | 0.0 | 0.0 | 0.00 | 0.00 | 0.00 | 98 | 1013.0 |
| 20260902073354 | 75 | 289 | 0.0 | 0.0 | 0.00 | 0.00 | 0.00 | 98 | 1013.4 |
| 20260902072849 | 75 | 280 | 0.0 | 0.0 | 0.00 | 0.00 | 0.00 | 98 | 1013.2 |
| 20260902072345 | 75 | 293 | 0.0 | 0.0 | 0.00 | 0.00 | 0.00 | 98 | 1013.0 |
| 20260902071841 | 75 | 290 | 0.0 | 0.0 | 0.00 | 0.00 | 0.00 | 98 | 1013.4 |
| 20260902071341 | 75 | 282 | 0.0 | 0.0 | 0.00 | 0.00 | 0.00 | 98 | 1013.4 |
| 20260902070837 | 75 | 285 | 0.0 | 0.0 | 0.00 | 0.00 | 0.00 | 98 | 1013.2 |
| 20260902070332 | 75 | 288 | 0.0 | 0.0 | 0.00 | 0.00 | 0.00 | 98 | 1013.0 |
| 20260902065830 | 75 | 288 | 0.0 | 0.0 | 0.00 | 0.00 | 0.00 | 98 | 1013.0 |
| 20260902065326 | 75 | 320 | 0.0 | 0.0 | 0.00 | 0.00 | 0.00 | 97 | 1013.0 |
| 20260902064821 | 76 | 278 | 0.0 | 0.0 | 0.00 | 0.00 | 0.00 | 97 | 1012.9 |
| 20260902064317 | 76 | 277 | 0.0 | 0.0 | 0.00 | 0.00 | 0.00 | 97 | 1013.2 |
| 20260902063812 | 76 | 284 | 0.0 | 0.0 | 0.00 | 0.00 | 0.00 | 96 | 1013.0 |
| 20260902063307 | 76 | 293 | 0.0 | 0.0 | 0.00 | 0.00 | 0.00 | 96 | 1013.1 |
| 20260902062801 | 76 | 287 | 0.0 | 0.0 | 0.00 | 0.00 | 0.00 | 95 | 1013.2 |
| 20260902062256 | 76 | 291 | 0.0 | 0.0 | 0.00 | 0.00 | 0.00 | 95 | 1013.2 |
| 20260902061755 | 77 | 297 | 0.0 | 0.0 | 0.00 | 0.00 | 0.00 | 95 | 1013.2 |
| 20260902061250 | 77 | 309 | 0.0 | 0.0 | 0.00 | 0.00 | 0.00 | 95 | 1013.5 |
| 20260902060748 | 77 | 286 | 0.0 | 0.0 | 0.00 | 0.00 | 0.00 | 95 | 1013.5 |
| 20260902060243 | 76 | 294 | 0.0 | 0.0 | 0.00 | 0.00 | 0.00 | 95 | 1013.3 |
| 20260902055738 | 76 | 275 | 0.0 | 0.0 | 0.00 | 0.00 | 0.00 | 95 | 1013.6 |
| 20260902055234 | 76 | 271 | 0.0 | 0.0 | 0.00 | 0.00 | 0.00 | 95 | 1013.5 |
| 20260902054729 | 76 | 314 | 0.0 | 0.0 | 0.00 | 0.00 | 0.00 | 96 | 1013.6 |
| 20260902054225 | 76 | 299 | 0.0 | 0.0 | 0.00 | 0.00 | 0.00 | 96 | 1013.3 |
| 20260902053720 | 76 | 280 | 0.0 | 0.0 | 0.00 | 0.00 | 0.00 | 96 | 1013.5 |
| 20260902053220 | 76 | 291 | 0.0 | 0.0 | 0.00 | 0.00 | 0.00 | 96 | 1013.7 |
| 20260902052719 | 76 | 274 | 0.0 | 0.0 | 0.00 | 0.00 | 0.00 | 96 | 1013.4 |
| 20260902052215 | 76 | 285 | 0.0 | 0.0 | 0.00 | 0.00 | 0.00 | 95 | 1013.5 |
| 20260902051714 | 76 | 295 | 0.0 | 0.0 | 0.00 | 0.00 | 0.00 | 95 | 1013.6 |
| 20260902051209 | 76 | 314 | 0.0 | 0.0 | 0.00 | 0.00 | 0.00 | 95 | 1013.5 |
| 20260902050703 | 76 | 312 | 0.0 | 0.0 | 0.00 | 0.00 | 0.00 | 95 | 1013.8 |
| 20260902050159 | 76 | 314 | 0.0 | 0.0 | 0.00 | 0.00 | 0.00 | 95 | 1013.3 |
| 20260902045653 | 77 | 295 | 0.0 | 0.0 | 0.00 | 0.00 | 0.00 | 95 | 1013.5 |
| 20260902045149 | 77 | 278 | 0.0 | 0.0 | 0.00 | 0.00 | 0.00 | 95 | 1013.5 |
| 20260902044644 | 77 | 277 | 0.9 | 0.9 | 0.00 | 0.00 | 0.00 | 95 | 1013.8 |
| 20260902044140 | 77 | 293 | 0.9 | 0.9 | 0.00 | 0.00 | 0.00 | 96 | 1013.7 |
| 20260902043634 | 76 | 259 | 1.7 | 1.7 | 0.00 | 0.00 | 0.00 | 96 | 1013.7 |
| 20260902043130 | 76 | 297 | 0.0 | 0.0 | 0.00 | 0.00 | 0.00 | 97 | 1013.7 |
| 20260902042624 | 76 | 278 | 0.0 | 0.0 | 0.00 | 0.00 | 0.00 | 97 | 1013.4 |
| 20260902042119 | 76 | 280 | 0.0 | 0.0 | 0.00 | 0.00 | 0.00 | 98 | 1013.5 |
| 20260902041618 | 76 | 34 | 0.0 | 0.0 | 0.00 | 0.00 | 0.00 | 98 | 1013.5 |
| 20260902041114 | 76 | 284 | 0.0 | 0.0 | 0.00 | 0.00 | 0.00 | 98 | 1013.6 |
| 20260902040613 | 76 | 275 | 0.0 | 0.0 | 0.00 | 0.00 | 0.00 | 98 | 1013.7 |
| 20260902040109 | 76 | 274 | 0.0 | 0.0 | 0.00 | 0.00 | 0.00 | 98 | 1013.4 |
| 20260902035607 | 76 | 256 | 0.0 | 0.0 | 0.00 | 0.00 | 0.00 | 98 | 1013.4 |
| 20260902035103 | 76 | 295 | 0.0 | 0.0 | 0.00 | 0.00 | 0.00 | 98 | 1013.5 |
| 20260902034601 | 77 | 290 | 0.0 | 0.0 | 0.00 | 0.00 | 0.00 | 98 | 1013.5 |
| 20260902034101 | 77 | 283 | 0.0 | 0.0 | 0.00 | 0.00 | 0.00 | 97 | 1013.3 |
| 20260902033600 | 77 | 296 | 0.0 | 0.0 | 0.00 | 0.00 | 0.00 | 97 | 1013.4 |
| 20260902033055 | 77 | 287 | 0.0 | 0.0 | 0.00 | 0.00 | 0.00 | 97 | 1013.4 |
| 20260902032554 | 77 | 298 | 0.0 | 0.0 | 0.00 | 0.00 | 0.00 | 97 | 1013.6 |
| 20260902032049 | 77 | 264 | 0.0 | 0.0 | 0.00 | 0.00 | 0.00 | 97 | 1013.5 |
| 20260902031544 | 77 | 286 | 0.0 | 0.0 | 0.00 | 0.00 | 0.00 | 97 | 1013.5 |
| 20260902031040 | 77 | 294 | 0.9 | 0.9 | 0.00 | 0.00 | 0.00 | 97 | 1013.6 |
| 20260902030534 | 77 | 294 | 0.0 | 0.0 | 0.00 | 0.00 | 0.00 | 97 | 1013.4 |
| 20260902030034 | 77 | 278 | 0.0 | 0.0 | 0.00 | 0.00 | 0.00 | 98 | 1013.5 |
| 20260902025529 | 77 | 279 | 0.0 | 0.0 | 0.00 | 0.00 | 0.00 | 98 | 1013.4 |
| 20260902025024 | 77 | 268 | 0.0 | 0.9 | 0.00 | 0.00 | 0.00 | 99 | 1013.6 |
| 20260902024520 | 77 | 279 | 0.0 | 0.0 | 0.00 | 0.00 | 0.00 | 98 | 1013.2 |
| 20260902024019 | 77 | 280 | 0.0 | 0.0 | 0.00 | 0.00 | 0.00 | 98 | 1013.0 |
| 20260902023515 | 77 | 287 | 0.0 | 0.0 | 0.00 | 0.00 | 0.00 | 97 | 1013.1 |
| 20260902023016 | 77 | 291 | 0.0 | 0.0 | 0.00 | 0.00 | 0.00 | 97 | 1013.2 |
| 20260902022510 | 78 | 289 | 0.0 | 0.0 | 0.00 | 0.00 | 0.00 | 96 | 1013.3 |
| 20260902022006 | 78 | 294 | 0.0 | 0.0 | 0.00 | 0.00 | 0.00 | 96 | 1013.2 |
| 20260902021501 | 78 | 276 | 0.0 | 0.0 | 0.00 | 0.00 | 0.00 | 96 | 1013.1 |
| 20260902020956 | 78 | 278 | 0.0 | 0.0 | 0.00 | 0.00 | 0.00 | 96 | 1013.1 |
| 20260902020452 | 78 | 289 | 0.0 | 0.0 | 0.00 | 0.00 | 0.00 | 95 | 1013.2 |
| 20260902015947 | 78 | 294 | 0.0 | 0.0 | 0.00 | 0.00 | 0.00 | 94 | 1013.1 |
| 20260902015443 | 79 | 297 | 0.0 | 0.0 | 0.00 | 0.00 | 0.00 | 94 | 1013.2 |
| 20260902014938 | 79 | 304 | 0.0 | 0.0 | 0.00 | 0.00 | 0.00 | 93 | 1013.1 |
| 20260902014435 | 80 | 292 | 0.0 | 0.0 | 0.00 | 0.00 | 0.00 | 93 | 1013.1 |
| 20260902013934 | 80 | 276 | 0.0 | 0.0 | 0.00 | 0.00 | 0.00 | 92 | 1013.2 |
| 20260902013430 | 80 | 283 | 0.0 | 0.0 | 0.00 | 0.00 | 0.00 | 92 | 1013.2 |
| 20260902012925 | 80 | 286 | 0.0 | 0.0 | 0.00 | 0.00 | 0.00 | 91 | 1013.1 |
| 20260902012420 | 80 | 274 | 0.0 | 0.0 | 0.00 | 0.00 | 0.00 | 91 | 1013.2 |
| 20260902011916 | 81 | 278 | 0.9 | 0.9 | 0.00 | 0.00 | 0.00 | 90 | 1013.3 |
| 20260902011411 | 81 | 258 | 0.9 | 0.9 | 0.00 | 0.00 | 0.00 | 90 | 1013.1 |
| 20260902010910 | 81 | 280 | 0.9 | 1.7 | 0.00 | 0.00 | 0.00 | 90 | 1013.3 |
| 20260902010405 | 81 | 274 | 0.0 | 0.0 | 0.00 | 0.00 | 0.00 | 90 | 1012.7 |
| 20260902005904 | 82 | 269 | 0.0 | 0.0 | 0.00 | 0.00 | 0.00 | 89 | 1013.0 |
| 20260902005359 | 82 | 279 | 0.0 | 0.0 | 0.00 | 0.00 | 0.00 | 88 | 1012.7 |
| 20260902004855 | 82 | 304 | 0.9 | 0.9 | 0.00 | 0.00 | 0.00 | 88 | 1012.9 |
| 20260902004354 | 82 | 267 | 0.9 | 0.9 | 0.00 | 0.00 | 0.00 | 87 | 1013.0 |
| 20260902003849 | 82 | 294 | 0.0 | 0.0 | 0.00 | 0.00 | 0.00 | 87 | 1012.9 |
| 20260902003344 | 82 | 270 | 0.9 | 1.7 | 0.00 | 0.00 | 0.00 | 87 | 1012.4 |
| 20260902002840 | 83 | 275 | 0.0 | 0.0 | 0.00 | 0.00 | 0.00 | 87 | 1012.7 |
| 20260902002339 | 83 | 277 | 0.0 | 0.0 | 0.00 | 0.00 | 0.00 | 86 | 1012.5 |
| 20260902001834 | 83 | 278 | 0.9 | 1.7 | 0.00 | 0.00 | 0.00 | 86 | 1012.6 |
| 20260902001329 | 83 | 296 | 1.7 | 1.7 | 0.00 | 0.00 | 0.00 | 85 | 1012.3 |
| 20260902000824 | 84 | 241 | 1.7 | 2.6 | 0.00 | 0.00 | 0.00 | 85 | 1012.7 |
| 20260902000322 | 84 | 251 | 0.9 | 2.6 | 0.00 | 0.00 | 0.00 | 84 | 1012.7 |
| 20260901235814 | 84 | 270 | 1.7 | 1.7 | 0.00 | 0.00 | 0.00 | 83 | 1012.7 |
| 20260901235308 | 85 | 281 | 0.0 | 0.9 | 0.00 | 0.00 | 0.00 | 83 | 1012.6 |
| 20260901234808 | 85 | 259 | 0.0 | 0.0 | 0.00 | 0.00 | 0.00 | 82 | 1012.7 |
| 20260901234303 | 85 | 272 | 1.7 | 2.6 | 0.00 | 0.00 | 0.00 | 81 | 1012.6 |
| 20260901233758 | 86 | 309 | 0.0 | 0.9 | 0.00 | 0.00 | 0.00 | 81 | 1012.9 |
| 20260901233253 | 86 | 279 | 1.7 | 2.6 | 0.00 | 0.00 | 0.00 | 80 | 1012.6 |
| 20260901232749 | 86 | 241 | 1.7 | 1.7 | 0.00 | 0.00 | 0.00 | 80 | 1012.9 |
| 20260901232244 | 86 | 259 | 0.9 | 1.7 | 0.00 | 0.00 | 0.00 | 79 | 1012.6 |
| 20260901231740 | 86 | 227 | 1.7 | 2.6 | 0.00 | 0.00 | 0.00 | 78 | 1012.6 |
| 20260901231236 | 86 | 269 | 0.9 | 0.9 | 0.00 | 0.00 | 0.00 | 78 | 1012.9 |
| 20260901230731 | 87 | 221 | 2.6 | 2.6 | 0.00 | 0.00 | 0.00 | 76 | 1013.1 |
| 20260901230225 | 87 | 66 | 0.9 | 2.6 | 0.00 | 0.00 | 0.00 | 76 | 1012.9 |
| 20260901225721 | 88 | 297 | 6.1 | 7.8 | 0.00 | 0.00 | 0.00 | 74 | 1012.9 |
| 20260901225215 | 88 | 305 | 1.7 | 1.7 | 0.00 | 0.00 | 0.00 | 74 | 1013.0 |
| 20260901224711 | 88 | 226 | 2.6 | 4.3 | 0.00 | 0.00 | 0.00 | 74 | 1012.9 |
| 20260901224207 | 89 | 230 | 2.6 | 4.3 | 0.00 | 0.00 | 0.00 | 73 | 1012.9 |
| 20260901223703 | 89 | 283 | 0.9 | 1.7 | 0.00 | 0.00 | 0.00 | 74 | 1012.6 |
| 20260901223158 | 89 | 285 | 2.6 | 2.6 | 0.00 | 0.00 | 0.00 | 73 | 1012.5 |
| 20260901222654 | 89 | 245 | 4.3 | 7.0 | 0.00 | 0.00 | 0.00 | 73 | 1012.4 |
| 20260901222150 | 89 | 249 | 3.5 | 5.2 | 0.00 | 0.00 | 0.00 | 73 | 1012.3 |
| 20260901221646 | 90 | 225 | 2.6 | 4.3 | 0.00 | 0.00 | 0.00 | 72 | 1012.3 |
| 20260901221141 | 89 | 261 | 2.6 | 2.6 | 0.00 | 0.00 | 0.00 | 72 | 1012.5 |
| 20260901220640 | 89 | 267 | 1.7 | 2.6 | 0.00 | 0.00 | 0.00 | 73 | 1012.6 |
| 20260901220139 | 90 | 297 | 1.7 | 5.2 | 0.00 | 0.00 | 0.00 | 72 | 1012.5 |
| 20260901215638 | 89 | 290 | 3.5 | 4.3 | 0.00 | 0.00 | 0.00 | 72 | 1012.2 |
| 20260901215133 | 89 | 254 | 0.9 | 1.7 | 0.00 | 0.00 | 0.00 | 73 | 1012.3 |
| 20260901214631 | 90 | 243 | 2.6 | 2.6 | 0.00 | 0.00 | 0.00 | 71 | 1012.3 |
| 20260901214130 | 90 | 272 | 1.7 | 2.6 | 0.00 | 0.00 | 0.00 | 71 | 1012.3 |
| 20260901213625 | 90 | 249 | 4.3 | 6.1 | 0.00 | 0.00 | 0.00 | 72 | 1012.2 |
| 20260901213120 | 91 | 245 | 2.6 | 2.6 | 0.00 | 0.00 | 0.00 | 71 | 1012.3 |
| 20260901212619 | 90 | 278 | 1.7 | 1.7 | 0.00 | 0.00 | 0.00 | 73 | 1012.4 |
| 20260901212116 | 90 | 13 | 0.9 | 0.9 | 0.00 | 0.00 | 0.00 | 72 | 1012.5 |
| 20260901211610 | 90 | 297 | 2.6 | 2.6 | 0.00 | 0.00 | 0.00 | 72 | 1012.5 |
| 20260901211107 | 89 | 306 | 0.9 | 0.9 | 0.00 | 0.00 | 0.00 | 74 | 1012.5 |
| 20260901210602 | 89 | 287 | 2.6 | 2.6 | 0.00 | 0.00 | 0.00 | 74 | 1012.7 |
| 20260901210058 | 89 | 275 | 1.7 | 1.7 | 0.00 | 0.00 | 0.00 | 73 | 1012.5 |
| 20260901205553 | 89 | 218 | 5.2 | 6.1 | 0.00 | 0.00 | 0.00 | 73 | 1012.6 |
| 20260901205047 | 90 | 253 | 0.9 | 2.6 | 0.00 | 0.00 | 0.00 | 71 | 1012.4 |
| 20260901204544 | 90 | 260 | 1.7 | 1.7 | 0.00 | 0.00 | 0.00 | 71 | 1012.6 |
| 20260901204039 | 90 | 205 | 2.6 | 5.2 | 0.00 | 0.00 | 0.00 | 70 | 1012.7 |
| 20260901203539 | 91 | 258 | 5.2 | 7.8 | 0.00 | 0.00 | 0.00 | 69 | 1012.5 |
| 20260901203034 | 91 | 220 | 3.5 | 4.3 | 0.00 | 0.00 | 0.00 | 71 | 1012.5 |
| 20260901202528 | 90 | 300 | 2.6 | 4.3 | 0.00 | 0.00 | 0.00 | 72 | 1012.5 |
| 20260901202025 | 90 | 250 | 1.7 | 2.6 | 0.00 | 0.00 | 0.00 | 72 | 1012.5 |
| 20260901201520 | 89 | 288 | 4.3 | 6.1 | 0.00 | 0.00 | 0.00 | 72 | 1012.9 |
| 20260901201015 | 89 | 317 | 0.9 | 1.7 | 0.00 | 0.00 | 0.00 | 74 | 1012.6 |
| 20260901200514 | 89 | 237 | 2.6 | 2.6 | 0.00 | 0.00 | 0.00 | 74 | 1013.1 |
| 20260901200009 | 90 | 276 | 4.3 | 5.2 | 0.00 | 0.00 | 0.00 | 73 | 1012.6 |
| 20260901195507 | 89 | 273 | 4.3 | 5.2 | 0.00 | 0.00 | 0.00 | 75 | 1012.6 |
| 20260901195006 | 89 | 230 | 4.3 | 5.2 | 0.00 | 0.00 | 0.00 | 74 | 1013.1 |
| 20260901194501 | 90 | 243 | 0.9 | 1.7 | 0.00 | 0.00 | 0.00 | 73 | 1013.0 |
| 20260901193957 | 90 | 87 | 3.5 | 6.1 | 0.00 | 0.00 | 0.00 | 73 | 1013.0 |
| 20260901193456 | 90 | 295 | 1.7 | 1.7 | 0.00 | 0.00 | 0.00 | 72 | 1012.9 |
| 20260901192956 | 90 | 247 | 2.6 | 2.6 | 0.00 | 0.00 | 0.00 | 73 | 1013.1 |
| 20260901192452 | 89 | 337 | 2.6 | 2.6 | 0.00 | 0.00 | 0.00 | 74 | 1013.3 |
| 20260901191948 | 90 | 218 | 2.6 | 2.6 | 0.00 | 0.00 | 0.00 | 73 | 1013.4 |
| 20260901191443 | 88 | 353 | 1.7 | 1.7 | 0.00 | 0.00 | 0.00 | 75 | 1013.1 |
| 20260901190939 | 88 | 42 | 0.9 | 0.9 | 0.00 | 0.00 | 0.00 | 75 | 1013.3 |
| 20260901190434 | 88 | 248 | 1.7 | 1.7 | 0.00 | 0.00 | 0.00 | 77 | 1013.4 |
| 20260901185932 | 89 | 244 | 0.9 | 0.9 | 0.00 | 0.00 | 0.00 | 76 | 1013.2 |
| 20260901185431 | 89 | 248 | 4.3 | 5.2 | 0.00 | 0.00 | 0.00 | 74 | 1013.3 |
| 20260901184926 | 89 | 225 | 2.6 | 2.6 | 0.00 | 0.00 | 0.00 | 76 | 1013.4 |
| 20260901184421 | 89 | 237 | 4.3 | 6.1 | 0.00 | 0.00 | 0.00 | 73 | 1013.2 |
| 20260901183917 | 90 | 221 | 0.9 | 0.9 | 0.00 | 0.00 | 0.00 | 72 | 1013.4 |
| 20260901183416 | 88 | 264 | 2.6 | 4.3 | 0.00 | 0.00 | 0.00 | 75 | 1013.4 |
| 20260901182912 | 88 | 209 | 1.7 | 2.6 | 0.00 | 0.00 | 0.00 | 75 | 1013.2 |
| 20260901182407 | 88 | 320 | 4.3 | 5.2 | 0.00 | 0.00 | 0.00 | 74 | 1013.1 |
| 20260901181857 | 88 | 222 | 2.6 | 4.3 | 0.00 | 0.00 | 0.00 | 76 | 1013.1 |
| 20260901181357 | 89 | 233 | 0.9 | 1.7 | 0.00 | 0.00 | 0.00 | 75 | 1013.1 |
| 20260901180855 | 88 | 284 | 2.6 | 4.3 | 0.00 | 0.00 | 0.00 | 76 | 1013.2 |
| 20260901180355 | 87 | 262 | 2.6 | 4.3 | 0.00 | 0.00 | 0.00 | 77 | 1013.2 |
| 20260901175853 | 87 | 302 | 1.7 | 1.7 | 0.00 | 0.00 | 0.00 | 78 | 1012.9 |
| 20260901175348 | 88 | 330 | 4.3 | 5.2 | 0.00 | 0.00 | 0.00 | 76 | 1013.3 |
| 20260901174843 | 88 | 278 | 4.3 | 6.1 | 0.00 | 0.00 | 0.00 | 76 | 1013.2 |
| 20260901174339 | 89 | 273 | 2.6 | 4.3 | 0.00 | 0.00 | 0.00 | 76 | 1013.0 |
| 20260901173835 | 88 | 264 | 2.6 | 4.3 | 0.00 | 0.00 | 0.00 | 76 | 1013.2 |
| 20260901173329 | 87 | 307 | 3.5 | 5.2 | 0.00 | 0.00 | 0.00 | 77 | 1013.3 |
| 20260901172826 | 87 | 262 | 0.9 | 1.7 | 0.00 | 0.00 | 0.00 | 77 | 1013.3 |
| 20260901172325 | 87 | 242 | 2.6 | 2.6 | 0.00 | 0.00 | 0.00 | 78 | 1013.4 |
| 20260901171823 | 87 | 301 | 3.5 | 5.2 | 0.00 | 0.00 | 0.00 | 77 | 1013.4 |
| 20260901171323 | 86 | 284 | 4.3 | 5.2 | 0.00 | 0.00 | 0.00 | 79 | 1013.4 |
| 20260901170817 | 87 | 233 | 1.7 | 2.6 | 0.00 | 0.00 | 0.00 | 79 | 1013.4 |
| 20260901170317 | 87 | 286 | 3.5 | 5.2 | 0.00 | 0.00 | 0.00 | 77 | 1013.5 |
| 20260901165815 | 87 | 272 | 0.9 | 1.7 | 0.00 | 0.00 | 0.00 | 78 | 1013.5 |
| 20260901165310 | 89 | 284 | 0.0 | 0.0 | 0.00 | 0.00 | 0.00 | 76 | 1013.7 |
| 20260901164807 | 88 | 288 | 0.0 | 0.0 | 0.00 | 0.00 | 0.00 | 77 | 1013.5 |
| 20260901164302 | 87 | 281 | 1.7 | 2.6 | 0.00 | 0.00 | 0.00 | 78 | 1013.7 |
| 20260901163757 | 87 | 247 | 0.0 | 0.9 | 0.00 | 0.00 | 0.00 | 77 | 1013.5 |
| 20260901163256 | 88 | 311 | 0.0 | 0.0 | 0.00 | 0.00 | 0.00 | 77 | 1013.6 |
| 20260901162752 | 88 | 189 | 0.9 | 2.6 | 0.00 | 0.00 | 0.00 | 75 | 1013.5 |
| 20260901162251 | 88 | 294 | 0.0 | 0.0 | 0.00 | 0.00 | 0.00 | 76 | 1013.6 |
| 20260901161750 | 88 | 298 | 0.0 | 0.0 | 0.00 | 0.00 | 0.00 | 77 | 1013.7 |
| 20260901161244 | 88 | 145 | 0.9 | 0.9 | 0.00 | 0.00 | 0.00 | 76 | 1014.0 |
| 20260901160741 | 87 | 243 | 0.0 | 0.0 | 0.00 | 0.00 | 0.00 | 78 | 1013.9 |
| 20260901160236 | 87 | 0 | 0.0 | 0.0 | 0.00 | 0.00 | 0.00 | 78 | 1014.0 |
| 20260901155735 | 86 | 120 | 0.0 | 0.0 | 0.00 | 0.00 | 0.00 | 78 | 1013.9 |
| 20260901155224 | 86 | 270 | 0.0 | 0.0 | 0.00 | 0.00 | 0.00 | 79 | 1014.3 |
| 20260901154719 | 84 | 285 | 0.0 | 0.0 | 0.00 | 0.00 | 0.00 | 81 | 1014.1 |
| 20260901154214 | 84 | 324 | 0.0 | 1.7 | 0.00 | 0.00 | 0.00 | 82 | 1014.0 |
| 20260901153709 | 85 | 240 | 0.9 | 1.7 | 0.00 | 0.00 | 0.00 | 81 | 1014.0 |
| 20260901153203 | 85 | 211 | 0.9 | 0.9 | 0.00 | 0.00 | 0.00 | 80 | 1014.0 |
| 20260901152658 | 84 | 258 | 0.0 | 0.9 | 0.00 | 0.00 | 0.00 | 82 | 1014.0 |
| 20260901152156 | 84 | 278 | 0.9 | 0.9 | 0.00 | 0.00 | 0.00 | 83 | 1014.2 |
| 20260901151653 | 83 | 254 | 0.0 | 0.0 | 0.00 | 0.00 | 0.00 | 84 | 1014.3 |
| 20260901151152 | 83 | 264 | 3.5 | 4.3 | 0.00 | 0.00 | 0.00 | 83 | 1014.2 |
| 20260901150651 | 83 | 301 | 0.0 | 0.0 | 0.00 | 0.00 | 0.00 | 84 | 1014.4 |
| 20260901150149 | 82 | 292 | 0.0 | 0.9 | 0.00 | 0.00 | 0.00 | 85 | 1014.2 |
| 20260901145648 | 82 | 285 | 0.0 | 0.0 | 0.00 | 0.00 | 0.00 | 85 | 1014.0 |
| 20260901145148 | 82 | 274 | 0.9 | 0.9 | 0.00 | 0.00 | 0.00 | 85 | 1014.1 |
| 20260901144643 | 83 | 302 | 0.0 | 0.0 | 0.00 | 0.00 | 0.00 | 84 | 1014.2 |
| 20260901144138 | 81 | 133 | 0.0 | 0.0 | 0.00 | 0.00 | 0.00 | 86 | 1014.1 |
| 20260901143633 | 81 | 333 | 0.9 | 1.7 | 0.00 | 0.00 | 0.00 | 86 | 1014.1 |
| 20260901143130 | 81 | 275 | 0.0 | 0.0 | 0.00 | 0.00 | 0.00 | 87 | 1014.0 |
| 20260901142626 | 80 | 329 | 0.9 | 1.7 | 0.00 | 0.00 | 0.00 | 88 | 1014.1 |
| 20260901142125 | 81 | 230 | 0.9 | 0.9 | 0.00 | 0.00 | 0.00 | 87 | 1014.1 |
| 20260901141620 | 80 | 173 | 0.0 | 0.0 | 0.00 | 0.00 | 0.00 | 89 | 1014.2 |
| 20260901141114 | 79 | 269 | 1.7 | 2.6 | 0.00 | 0.00 | 0.00 | 90 | 1014.2 |
| 20260901140613 | 80 | 264 | 0.9 | 0.9 | 0.00 | 0.00 | 0.00 | 89 | 1013.9 |
| 20260901140112 | 79 | 241 | 0.0 | 0.9 | 0.00 | 0.00 | 0.00 | 90 | 1014.1 |
| 20260901135612 | 79 | 262 | 4.3 | 6.1 | 0.00 | 0.00 | 0.00 | 90 | 1014.1 |